Home > Weather > Norfolk > Past weeks

Flag for USA Weather for the Past 2 Weeks in Norfolk, Virginia, USA

Now
55 °F

Low clouds.


Feels Like: 50 °F
Forecast: 54 / 58 °F
Wind: 18 mph from Northeast

Location: Norfolk Naval Air Station

Current Time: May 5, 2016 at 12:41:17 PM

Latest Report: May 5, 2016 at 11:59 AM


Visibility: 10 mi

Pressure: 29.61 "Hg

Humidity: 83%

Dew Point: 50 °F

Location of NorfolkLocation

Historic Weather in Norfolk — Graph

°F

Norfolk Temperature Yesterday

Maximum temperature yesterday: 62 °F (at 1:01 AM)
Minimum temperature yesterday: 55 °F (at 10:59 PM)
Average temperature yesterday: 59 °F

High & Low Weather Summary for the Past Weeks

 TemperatureHumidityPressure
High86 °F (Apr 26, 4:59 PM)97% (May 4, 7:59 AM)30.32 "Hg (May 4, 7:59 AM)
Low44 °F (Apr 21, 12:59 AM)25% (Apr 20, 3:59 PM)29.59 "Hg (May 5, 3:59 AM)
Average63 °F75%29.96 "Hg
* Reported Apr 20 10:59 AM — May 5 10:59 AM, Norfolk, Weather by CustomWeather, © 2016

Note: Actual official high and low records may vary slightly from our data, if they occured in-between our weather recording intervals... More about our weather records

Advertising

Norfolk Weather History for the Previous 24 Hours

Scroll right to see more
 ConditionsComfort  
Time TempWeatherWind HumidityBarometerVisibility
10:59 AM
Thu, May 5
54 °FLow clouds.15 mph86%29.62 "Hg9 mi
9:59 AM54 °FLow clouds.15 mph86%29.62 "Hg8 mi
8:59 AM54 °FLow clouds.13 mph86%29.62 "Hg9 mi
7:59 AM53 °FFog.13 mph89%29.62 "Hg5 mi
6:59 AM53 °FFog.13 mph93%29.61 "Hg4 mi
5:59 AM53 °FDrizzle. Fog.13 mph93%29.61 "Hg2 mi
4:59 AM54 °FLow clouds.12 mph93%29.59 "Hg9 mi
3:59 AM55 °FLow clouds.14 mph90%29.59 "Hg9 mi
2:59 AM55 °FLow clouds.12 mph93%29.64 "Hg9 mi
1:59 AM55 °FFog.9 mph93%29.65 "Hg5 mi
12:59 AM55 °FFog.9 mph93%29.66 "Hg6 mi
11:59 PM
Wed, May 4
55 °FLow clouds.7 mph93%29.67 "Hg7 mi
10:59 PM55 °FFog.12 mph93%29.68 "Hg4 mi
9:59 PM56 °FLow clouds.12 mph90%29.67 "Hg10 mi
8:59 PM57 °FLow clouds.12 mph90%29.65 "Hg10 mi
7:59 PM58 °FLow clouds.10 mph90%29.65 "Hg8 mi
6:59 PM60 °FMostly cloudy.8 mph86%29.65 "Hg10 mi
5:59 PM60 °FLow clouds.10 mph86%29.65 "Hg9 mi
4:59 PM61 °FLow clouds.10 mph87%29.63 "Hg8 mi
3:59 PM62 °FOvercast.8 mph83%29.62 "Hg9 mi
2:59 PM62 °FLow clouds.6 mph83%29.65 "Hg10 mi
1:59 PM62 °FMore clouds than sun.6 mph80%29.67 "Hg10 mi
12:59 PM60 °FLow clouds.6 mph90%29.67 "Hg7 mi
Weather by CustomWeather, © 2016

See weather overviewHow to use our weather pages